Погода в Сале

Марокко     34°03′11″N   6°47′53″W
темп.,
°C
ветер,
м/с
пор.,
м/с
влажн.,
%
обл.,
%
осадки,
мм/ч
давл.,
гПа
погр.,
м
17 апреля, сб
сб1700:00+15с1285100 0.0 1017154
03:00+15ссв12865 0.0 1016167
06:00+14ссз128732 0.0 1017215
09:00+18сз33703 0.0 1018704
12:00+20сз43620 0.0 1017780
15:00+20сз54610 0.0 1017645
18:00+18с56670 0.0 1017501
21:00+16всв238936 0.0 1019192
18 апреля, вс
вс1800:00+14вюв228917 0.0 101956
03:00+14всв228664 0.0 101852
06:00+13в22879 0.0 101867
09:00+19всв2358100 0.0 1019458
12:00+21с4445100 0.0 10191041
15:00+21с765373 0.0 1017796
18:00+19с68685 0.0 1018422
21:00+16св34855 0.0 1020150
19 апреля, пн
пн1900:00+14вюв22803 0.0 101951
03:00+14юв11730 0.0 101832
06:00+13ююв11720 0.0 101830
09:00+19ссз23622 0.0 1019504
12:00+21сз545583 0.0 1019716
15:00+20ссз555235 0.0 1018657
18:00+19ссз45622 0.0 1018489
21:00+16с22825 0.0 1020190
20 апреля, вт
вт2000:00+15вюв11852 0.0 101855
03:00+14всв11850 0.0 1017108
06:00+13юв11872 0.0 101737
09:00+18ссз12655 0.0 1017514
12:00+20сз545542 0.0 1017814
15:00+20ссз555814 0.0 1015710
18:00+18с56715 0.0 1016688
21:00+15св22847 0.0 1017229
21 апреля, ср
ср2100:00+14св228731 0.0 1016212
03:00+13вюв128937 0.0 101573
06:00+13юв119137 0.0 101543
09:00+17ссз12719 0.0 1016591
12:00+19сз546784 0.0 1015893
15:00+19ссз546797 0.0 1014812
18:00+17ссз667438 0.0 1015900
21:00+15с23803 0.0 1017337